Simultaneous Nadir Overpasses (SNOs) Predictions

Prediction of SNOs between GOES-16 and METOP-C Satellite Orbit:

Table of predicted SNOs for the next 14.0 days since TLE Epoch: 1/26/2020
Index Date Time (GOES-16) GOES-16 Lat,Lon METOP-C Lat,Lon Distance(km) Time Diff (sec)
1 01/28/2020 02:32:23 -0.01, -75.19 0.06, -75.00 22.67 80
2 01/29/2020 14:48:17 0.00, -75.21 0.93, -79.48 486.60 80
3 01/30/2020 14:30:05 0.01, -75.22 -0.17, -74.43 88.96 80
4 02/01/2020 02:46:08 0.00, -75.22 -0.82, -78.96 426.12 80
5 02/02/2020 02:27:57 -0.00, -75.23 0.29, -73.91 149.71 80
6 02/03/2020 14:43:50 -0.01, -75.25 0.72, -78.39 358.89 80
7 02/04/2020 14:25:40 -0.00, -75.26 -0.43, -73.36 217.01 80
8 02/06/2020 02:41:42 0.01, -75.27 -0.59, -77.88 297.60 80
9 02/07/2020 02:23:32 0.00, -75.28 0.57, -72.84 278.50 80
10 02/08/2020 14:39:25 -0.01, -75.31 0.46, -77.32 229.83 80




NCC Satellite Simultaneous Nadir Overpasses (SNOs) Prediction Service
